Skip Page Navigation
NASA JPL Caltech
NASA Logo - Jet Propulsion Laboratory + View the NASA Portal
+ Center for Near-Earth Object Studies
JPL Home Earth Solar System Stars & Galaxies Technology
JPL Solar System Dynamics
BODIES ORBITS EPHEMERIDES TOOLS PHYSICAL DATA DISCOVERY FAQ SITE MAP
IMPORTANT: The SSD Announcement email list is now available. Major changes are coming in the near future, including possible hostname and/or URL changes. To be notified of such changes, subscribe to this email list.

Please visit this page for more details.


JPL Small-Body Database Browser
Search: [ help ]  
193084 (2000 GA53)
Classification: Main-belt Asteroid          SPK-ID: 2193084
Ephemeris | Orbit Diagram | Orbital Elements | Mission Design | Physical Parameters | Discovery Circumstances | Close-Approach Data ]

[ show orbit diagram ]
Orbital Elements at Epoch 2458600.5 (2019-Apr-27.0) TDB
Reference: JPL 12 (heliocentric ecliptic J2000)
 Element Value Uncertainty (1-sigma)   Units 
e .2207632265609845 6.2147e-08  
a 2.370978508806131 2.0255e-08 au
q 1.847553643095338 1.4797e-07 au
i 5.527746629540487 4.9123e-06 deg
node 212.2355167121708 7.1739e-05 deg
peri 77.95009544711046 7.3254e-05 deg
M 16.20438339464889 1.0657e-05 deg
tp 2458540.476700885321
(2019-Feb-25.97670089)
3.9443e-05 TDB
period 1333.490275749717
3.65
1.7088e-05
4.678e-08
d
yr
n .2699682229010634 3.4595e-09 deg/d
Q 2.894403374516924 2.4727e-08 au
  Orbit Determination Parameters
   # obs. used (total)      243  
   data-arc span      6583 days (18.02 yr)  
   first obs. used      2000-04-05  
   last obs. used      2018-04-14  
   planetary ephem.      DE431  
   SB-pert. ephem.      SB431-N16  
   condition code      0  
   norm. resid. RMS      .55428  
   source      ORB  
   producer      Otto Matic  
   solution date      2019-Jul-13 10:29:28  

Additional Information
 Earth MOID = .840537 au 
 Jupiter MOID = 2.30807 au 
 T_jup = 3.505 
[ show covariance matrix ]

Ephemeris | Orbit Diagram | Orbital Elements | Mission Design | Physical Parameters | Discovery Circumstances | Close-Approach Data ]

Physical Parameter Table
Parameter Symbol Value Units Sigma Reference Notes
absolute magnitude H 16.7   n/a MPO440064  

193084 (2000 GA53)          Discovered 2000-Apr-05 by LINEAR at Socorro
Reference: 20081113/Numbers.arcLast Updated: 2008-11-17

[ show close-approach data ]
Alternate Designations
 2000 GA53 = 2001 WO42 
Ephemeris | Orbit Diagram | Orbital Elements | Mission Design | Physical Parameters | Discovery Circumstances | Close-Approach Data ]
ABOUT SSD CREDITS/AWARDS PRIVACY/COPYRIGHT GLOSSARY LINKS
FirstGov 2019-Oct-22 00:06 UT
(server date/time)  
NASA Home Page
Site Manager:   Ryan S. Park
Webmaster  Alan B. Chamberlin